Location: OHP
(43.9325°N, 5.7154°E)
Time: 14:23:32
(UTC+01:00)

Nauka - Visible Passes

Search period start: 24 September 2021 00:00
Search period end: 04 October 2021 00:00
Orbit: 419 x 423 km, 51.6° (Epoch: 23 September)

Date Brightness Start Highest point End Pass type
(mag) Time Alt. Az. Time Alt. Az. Time Alt. Az.
24 Sep ? 20:01:20 10° WNW 20:04:01 22° N 20:05:32 16° NNE visible
25 Sep ? 19:14:09 10° WNW 19:16:55 23° N 19:19:42 10° NE visible
25 Sep ? 20:51:40 10° NW 20:53:21 20° NNW 20:53:21 20° NNW visible
26 Sep ? 20:04:42 10° NW 20:07:25 22° N 20:08:10 21° NNE visible
27 Sep ? 19:17:39 10° NW 19:20:19 21° N 19:22:59 10° NE visible
27 Sep ? 20:54:37 10° NW 20:55:58 21° NW 20:55:58 21° NW visible
28 Sep ? 20:07:44 10° NW 20:10:46 30° NNE 20:10:48 30° NNE visible
29 Sep ? 19:20:49 10° NW 19:23:41 25° NNE 19:25:40 15° ENE visible
29 Sep ? 20:57:31 10° WNW 20:58:39 20° NW 20:58:39 20° NW visible
30 Sep ? 20:10:37 10° NW 20:13:32 50° N 20:13:32 50° N visible
01 Oct ? 19:23:44 10° NW 19:26:56 39° NNE 19:28:28 24° ENE visible
01 Oct ? 21:00:38 10° WNW 21:01:28 16° WNW 21:01:28 16° WNW visible
02 Oct ? 18:36:50 10° NW 18:39:53 30° NNE 18:42:56 10° E visible
02 Oct ? 20:13:35 10° WNW 20:16:28 53° WSW 20:16:28 53° WSW visible
03 Oct ? 19:26:37 10° WNW 19:29:59 86° NNE 19:31:32 30° ESE visible
